カタログに戻る

STARLINK-37807

運用中通信VLEO
NORAD 100046·PAYLOAD·🇺🇸 United States

打ち上げ Jul 14, 2026 から Cape Canaveral Space Force Station

Loading…

次のパス (今後24時間)

TLE

最新Source: Space-Track

元期: Sep 14, 2026, 08:25 UTC

1 A0046U 26161U   26257.35134818  .00018430  00000-0  55542-3 0  9991
2 A0046  53.1616  26.6520 0001081  74.3383 285.7739 15.34390773  9667

AllMySatでSTARLINK-37807をリアルタイム追跡

Download on the App Store